Ellensburg, WA

7:10 PM PST on November 20, 2017 (GMT -0800)
Bowers

Weather History for KELN - February, 2013

Change the Weather History Date:

Friday, February 15, 2013

  Actual Average (KYKM) Record (KYKM)
Temperature  
Mean Temperature 42 °F -  
Max Temperature 55 °F 46 °F 67 °F (2016)
Min Temperature 28 °F 27 °F 1 °F (1956)
Degree Days  
Heating Degree Days 24    
Moisture  
Dew Point 29 °F    
Average Humidity 70    
Maximum Humidity 85    
Minimum Humidity 45    
Precipitation  
Precipitation 0.00 in - - ()
Sea Level Pressure  
Sea Level Pressure 30.43 in    
Wind  
Wind Speed 2 mph (ESE)    
Max Wind Speed 8 mph    
Max Gust Speed -    
Visibility 10 miles    
Events      
Averages and records for this station are not official NWS values.
T = Trace of Precipitation, MM = Missing Value Source: NWS Daily Summary

Daily Weather History Graph

Daily Weather History Graph

Search for Another Location

Airport or City:

Trip Planner

Search our weather history database for the weather conditions in past years. The results will help you decide how hot, cold, wet, or windy it might be!

Date:

Astronomy

Feb. 15, 2013 Rise Set
Actual Time 7:06 AM PST 5:27 PM PST
Civil Twilight 6:34 AM PST 5:58 PM PST
Nautical Twilight 5:59 AM PST 6:34 PM PST
Astronomical Twilight 5:23 AM PST 7:09 PM PST
Moon 9:19 AM PST (2/15) No Moon Set
Length of Visible Light 11h 23m
Length of Day
10h 21m
Waxing Crescent, 31% of the Moon is Illuminated
Feb 15
Waxing Crescent
Feb 17
First Quarter
Feb 25
Full
Mar 4
Last Quarter
Mar 11
New

Hourly Weather History & Observations

Time (PST) Temp. Windchill Dew Point Humidity Pressure Visibility Wind Dir Wind Speed Gust Speed Precip Events Conditions
12:53 AM 33.1 °F - 27.0 °F 78% 30.53 in 10.0 mi Calm Calm - N/A   Clear
1:53 AM 30.9 °F - 26.1 °F 82% 30.53 in 10.0 mi Calm Calm - N/A   Clear
2:53 AM 30.9 °F - 26.1 °F 82% 30.53 in 10.0 mi Calm Calm - N/A   Clear
3:53 AM 30.9 °F 27.5 °F 26.1 °F 82% 30.52 in 10.0 mi SE 3.5 mph - N/A   Clear
4:53 AM 30.0 °F - 26.1 °F 85% 30.51 in 10.0 mi Calm Calm - N/A   Clear
5:53 AM 28.0 °F 22.8 °F 23.0 °F 81% 30.52 in 10.0 mi East 4.6 mph - N/A   Clear
6:53 AM 28.0 °F - 23.0 °F 81% 30.52 in 10.0 mi Calm Calm - N/A   Clear
7:45 AM 28.4 °F - 23.0 °F 80% 30.48 in 10.0 mi Calm Calm - N/A   Partly Cloudy
7:53 AM 30.0 °F - 25.0 °F 82% 30.53 in 10.0 mi Calm Calm - N/A   Partly Cloudy
8:53 AM 37.0 °F - 30.9 °F 79% 30.53 in 10.0 mi Calm Calm - N/A   Clear
9:53 AM 41.0 °F - 33.1 °F 73% 30.53 in 10.0 mi Calm Calm - N/A   Clear
10:53 AM 45.0 °F 43.5 °F 33.1 °F 63% 30.51 in 10.0 mi Variable 3.5 mph - N/A   Clear
11:53 AM 48.9 °F - 32.0 °F 52% 30.49 in 10.0 mi SE 3.5 mph - N/A   Clear
12:53 PM 52.0 °F - 33.1 °F 49% 30.45 in 9.0 mi Calm Calm - N/A   Clear
1:53 PM 53.1 °F - 33.1 °F 47% 30.40 in 10.0 mi Calm Calm - N/A   Clear
2:53 PM 55.0 °F - 34.0 °F 45% 30.38 in 10.0 mi SE 3.5 mph - N/A   Clear
3:53 PM 55.0 °F - 34.0 °F 45% 30.36 in 10.0 mi Calm Calm - N/A   Clear
4:53 PM 52.0 °F - 33.1 °F 49% 30.34 in 10.0 mi SE 3.5 mph - N/A   Clear
5:53 PM 44.1 °F 40.1 °F 30.9 °F 60% 30.34 in 10.0 mi East 6.9 mph - N/A   Clear
6:53 PM 41.0 °F 35.8 °F 30.9 °F 67% 30.33 in 10.0 mi East 8.1 mph - N/A   Clear
7:53 PM 37.9 °F 34.4 °F 28.9 °F 70% 30.32 in 10.0 mi SE 4.6 mph - N/A   Clear
8:53 PM 37.9 °F 32.1 °F 30.9 °F 76% 30.31 in 10.0 mi East 8.1 mph - N/A   Clear
9:53 PM 33.1 °F 30.0 °F 27.0 °F 78% 30.30 in 10.0 mi NE 3.5 mph - N/A   Clear
10:53 PM 35.1 °F - 28.0 °F 76% 30.29 in 10.0 mi Calm Calm - N/A   Clear
11:53 PM 30.9 °F 27.5 °F 25.0 °F 79% 30.26 in 10.0 mi ENE 3.5 mph - N/A   Clear